Forrest, Australia

12:54 PM AWST on March 25, 2017 (GMT +0800)
Forrest

Weather History for YFRT - January, 2013

Change the Weather History Date:

Tuesday, January 29, 2013

  Actual Average Record
Temperature  
Mean Temperature 66 °F -  
Max Temperature 82 °F 89 °F - ()
Min Temperature 50 °F 60 °F - ()
Cooling Degree Days 1    
Growing Degree Days 16 (Base 50)    
Moisture  
Dew Point 45 °F    
Average Humidity 45    
Maximum Humidity 76    
Minimum Humidity 16    
Precipitation  
Precipitation 0.00 in 0.02 in - ()
Sea Level Pressure  
Sea Level Pressure 30.13 in    
Wind  
Wind Speed 8 mph ()    
Max Wind Speed 21 mph    
Max Gust Speed 25 mph    
T = Trace of Precipitation, MM = Missing Value Source: Averaged Metar Reports

Daily Weather History Graph

Daily Weather History Graph

Search for Another Location

Airport or City:

Trip Planner

Search our weather history database for the weather conditions in past years. The results will help you decide how hot, cold, wet, or windy it might be!

Date:

Astronomy

Jan. 29, 2013 Rise Set
Actual Time 4:51 AM AWST 6:29 PM AWST
Civil Twilight 4:25 AM AWST 6:55 PM AWST
Nautical Twilight 3:54 AM AWST 7:26 PM AWST
Astronomical Twilight 3:20 AM AWST 7:59 PM AWST
Moon 7:28 PM AWST (1/29) 6:36 AM AWST (1/29)
Length of Visible Light 14h 29m
Length of Day
13h 37m
Waning Gibbous, 96% of the Moon is Illuminated
Jan 29
Waning Gibbous
Feb 3
Last Quarter
Feb 10
New
Feb 18
First Quarter
Feb 26
Full

Hourly Weather History & Observations

Time (AWST) Temp. Dew Point Humidity Pressure Visibility Wind Dir Wind Speed Gust Speed Precip Events Conditions
12:00 AM 56 °F 46 °F 59% 30.17 in - South 6.9 mph - -  
12:00 AM 55.4 °F 46.4 °F 72% 30.18 in - South 6.9 mph - N/A   Unknown
1:00 AM 53.6 °F 44.6 °F 72% 30.18 in - SSW 8.1 mph - N/A   Unknown
2:00 AM 53 °F 44 °F 64% 30.16 in - SSW 6.9 mph - -  
2:00 AM 53.6 °F 44.6 °F 72% 30.15 in - SSW 6.9 mph - N/A   Unknown
3:00 AM 53 °F 44 °F 62% 30.15 in - SSW 8.1 mph - -  
3:00 AM 51.8 °F 44.6 °F 76% 30.15 in - SSW 8.1 mph - N/A   Unknown
4:00 AM 51.8 °F 42.8 °F 71% 30.15 in - SSW 6.9 mph - N/A   Unknown
5:00 AM 51 °F 43 °F 66% 30.17 in - SSW 8.1 mph - -  
5:00 AM 51.8 °F 42.8 °F 71% 30.18 in - SSW 8.1 mph - N/A   Unknown
6:00 AM 58 °F 47 °F 58% 30.19 in - SSW 6.9 mph - -  
6:00 AM 59.0 °F 48.2 °F 67% 30.18 in - SSW 6.9 mph - N/A   Unknown
7:00 AM 64.4 °F 48.2 °F 56% 30.21 in - SE 6.9 mph - N/A   Unknown
8:00 AM 68 °F 47 °F 36% 30.19 in - ESE 10.4 mph - -  
8:00 AM 68.0 °F 48.2 °F 49% 30.21 in - ESE 10.4 mph - N/A   Unknown
9:00 AM 71 °F 45 °F 28% 30.18 in - ESE 6.9 mph - -  
9:00 AM 71.6 °F 44.6 °F 38% 30.18 in - ESE 6.9 mph - N/A   Unknown
10:00 AM 69.8 °F 44.6 °F 40% 30.18 in - SSW 6.9 mph - N/A   Unknown
11:00 AM 74 °F 44 °F 23% 30.14 in - SE 10.4 mph - -  
11:00 AM 73.4 °F 44.6 °F 36% 30.15 in - SE 10.4 mph - N/A   Unknown
12:00 PM 76 °F 43 °F 20% 30.12 in - SSE 8.1 mph - -  
12:00 PM 75.2 °F 42.8 °F 31% 30.12 in - SSE 8.1 mph - N/A   Unknown
1:00 PM 77.0 °F 42.8 °F 29% 30.09 in - SSW 8.1 mph - N/A   Unknown
2:00 PM 80 °F 44 °F 18% 30.07 in - SSE 8.1 mph - -  
2:00 PM 80.6 °F 44.6 °F 28% 30.06 in - SSE 8.1 mph 25.3 mph N/A   Unknown
3:00 PM 80 °F 42 °F 16% 30.04 in - ESE 9.2 mph - -  
3:00 PM 80.6 °F 42.8 °F 26% 30.06 in - ESE 9.2 mph - N/A   Unknown
4:00 PM 80.6 °F 42.8 °F 26% 30.04 in - SE 13.8 mph - N/A   Unknown
5:00 PM 79 °F 44 °F 19% 30.03 in - SE 16.1 mph - -  
5:00 PM 78.8 °F 44.6 °F 30% 30.04 in - SE 16.1 mph - N/A   Unknown
6:00 PM 74 °F 45 °F 24% 30.05 in - SE 18.4 mph - -  
6:00 PM 75.2 °F 44.6 °F 34% 30.06 in - SE 18.4 mph - N/A   Unknown
7:00 PM 69.8 °F 46.4 °F 43% 30.09 in - SE 20.7 mph - N/A   Unknown
8:00 PM 66 °F 46 °F 37% 30.10 in - SE 18.4 mph - -  
8:00 PM 66.2 °F 46.4 °F 49% 30.09 in - SE 18.4 mph - N/A   Unknown
9:00 PM 64 °F 47 °F 43% 30.10 in - SE 15.0 mph - -  
9:00 PM 64.4 °F 46.4 °F 52% 30.12 in - SE 15.0 mph - N/A   Unknown
10:00 PM 60.8 °F 46.4 °F 59% 30.12 in - ESE 11.5 mph - N/A   Unknown
11:00 PM 60 °F 46 °F 49% 30.09 in - ESE 6.9 mph - -  
11:00 PM 59.0 °F 46.4 °F 63% 30.09 in - ESE 6.9 mph - N/A   Unknown